sat.trackr.live / text

‹ back to catalog

STARLINK-32155

NORAD 60274 · 2024-131V

PAYLOAD ACTIVE UNKNOWN

§ Identity

Operator
Country
US
Launch date
2024-07-27
Launch site
AFETR
Launch vehicle
Mass (kg)
RCS (m²)

Purposes: comms

External: N2YO · Heavens-Above · Gunter

§ Orbital elements

Epoch: 2026-05-25T03:39:21.273984Z

Period
94.01 min
Inclination
53.1617°
Eccentricity
0.0001241
Mean motion
15.31701229 rev/d
Perigee alt
469.9 km
Apogee alt
471.6 km
Semi-major
6,848.9 km
B*
3.2568e-5
RAAN
57.3913°
Arg perigee
87.0829°
Mean anomaly
273.0315°
Rev number
10,332

§ Raw data

STARLINK-321551 60274U 24131V   26145.15232956  .00000646  00000+0  32568-4 0  99942 60274  53.1617  57.3913 0001241  87.0829 273.0315 15.31701229103325

JSON: /api/v1/satellites/60274 · /tle

For live sub-satellite position, see the globe view (requires WebGL).

§ Visibility from observer

Set your observer location to see the next 7 days of passes ≥ 10°. The values pass through the URL so the page stays shareable.

No JS? Fill the form by hand. The geolocation button needs JavaScript.